ROMMA est une association bénévole à but non lucratif. Votre soutien est indispensable : ADHERER à ROMMA ou FAIRE un DON

Saint-Vallier-de-Thiey - (06, Alpes-Maritimes)

Côte-d'Azur (723 m)   Longitude: 06° 50' 21" E   Latitude: 43° 42' 8" N Station partenaire n°150
 

Détail journalier du     <<     >>

Température Precipitation Humidité Pression Vent Dir Rafale Dir. rafale
Heure (°C) (mm) (%) (hPa) (km/h) (km/h)
01:00 11.707910222ENE11ENE
02:00 10.808210221ENE3ENE
03:00 10.907710232ENE6NE
04:00 10.1078102305NE
05:00 10.207610231NE5NE
06:00 9.708010232NE6NE
07:00 9.607710232NNO6NNE
08:00 9.607710232N6N
09:00 13.407310241N5N
10:00 17.106810251---8S
11:00 18.306710253SE10SE
12:00 18.107010255SE13SE
13:00 18.606910255ESE16SSE
14:00 18.407010256SE18SE
15:00 18.706910256SE18SSE
16:00 18.607010245ESE15SSE
17:00 17.707510245SSE16SSE
18:00 16.008110243SSE8SSE
19:00 15.008110242SSE8SSE
20:00 14.308310241SO3SO
21:00 12.308710251SO5SO
22:00 11.108810251---5OSO
23:00 10.7092102505ONO
minuit 10.7093102505ONO

Graphique du 11-10-2019

 

Serveur OMMA